Location: Mohawk View
(42.7837°N, 73.7885°W)
Time: 13:22:10
(UTC+00:00)

USA 305 - Pass Details

Date: 17 June 2021
Orbit: 558 x 580 km, 54.0° (Epoch: 13 July)

Event Time Altitude Azimuth Distance (km) Brightness Sun altitude
Exits shadow 07:32:17 26° 225° (SW) 1,117 3.8 -14.7°
Maximum altitude 07:34:34 82° 142° (SE) 569 2.8 -14.4°
Drops below altitude 10° 07:38:47 10° 53° (NE) 1,853 6.8 -14.0°
Sets 07:41:03 0° 53° (NE) 2,754 8.0 -13.7°
